Weather History for Benton Harbor, MI

Change the Weather History Date:

Saturday, January 26, 2013

  Actual Average Record
Temperature  
Mean Temperature 26 °F -  
Max Temperature 28 °F 31 °F 66 °F (1950)
Min Temperature 21 °F 16 °F -5 °F (1987)
Degree Days  
Heating Degree Days 39    
Moisture  
Dew Point 17 °F    
Average Humidity 69    
Maximum Humidity 80    
Minimum Humidity 61    
Precipitation  
Precipitation 0.00 in - - ()
Sea Level Pressure  
Sea Level Pressure 30.28 in    
Wind  
Wind Speed 6 mph (NNW)    
Max Wind Speed 12 mph    
Max Gust Speed 20 mph    
Visibility 8 miles    
Events Snow    
Averages and records for this station are not official NWS values.
T = Trace of Precipitation, MM = Missing Value Source: NWS Daily Summary

Daily Weather History Graph

Daily Weather History Graph

Search for Another Location

Airport:

Trip Planner

Search our weather history database for the weather conditions in past years. The results will help you decide how hot, cold, wet, or windy it might be!

Date:

Astronomy

Jan. 26, 2013 Rise Set
Actual Time 8:04 AM EST 5:52 PM EST
Civil Twilight 7:34 AM EST 6:23 PM EST
Nautical Twilight 7:00 AM EST 6:56 PM EST
Astronomical Twilight 6:27 AM EST 7:29 PM EST
Moon 5:48 PM EST (1/26) 7:21 AM EST (1/26)
Length of Visible Light 10h 48m
Length of Day
9h 48m
Full, 100% of the Moon is Illuminated
Jan 26
Full
Jan 26
Full
Feb 3
Last Quarter
Feb 10
New
Feb 17
First Quarter

Hourly Weather History & Observations

Time (EST) Temp. Windchill Dew Point Humidity Pressure Visibility Wind Dir Wind Speed Gust Speed Precip Events Conditions
12:18 AM 26.6 °F 18.2 °F 19.4 °F 74% 30.07 in 7.0 mi NW 8.1 mph 16.1 mph 0.00 in Snow Light Snow
12:25 AM 26.6 °F 19.1 °F 19.4 °F 74% 30.07 in 5.0 mi Variable 6.9 mph - 0.00 in Snow Light Snow
12:53 AM 26.1 °F 16.8 °F 17.1 °F 69% 30.11 in 5.0 mi NW 9.2 mph 19.6 mph 0.00 in Snow Light Snow
1:36 AM 26.6 °F 16.8 °F 17.6 °F 69% 30.10 in 10.0 mi NW 10.4 mph 19.6 mph 0.00 in   Overcast
1:44 AM 26.6 °F 18.2 °F 15.8 °F 64% 30.11 in 10.0 mi NW 8.1 mph 18.4 mph 0.00 in   Overcast
1:53 AM 26.1 °F 15.6 °F 17.1 °F 69% 30.14 in 6.0 mi WNW 11.5 mph 16.1 mph 0.00 in Snow Light Snow
2:25 AM 26.6 °F 19.1 °F 15.8 °F 64% 30.12 in 8.0 mi Variable 6.9 mph 17.3 mph 0.00 in Snow Light Snow
2:53 AM 26.1 °F 16.2 °F 17.1 °F 69% 30.16 in 8.0 mi WNW 10.4 mph 17.3 mph 0.00 in   Overcast
3:00 AM 26.6 °F 18.2 °F 17.6 °F 69% 30.13 in 7.0 mi NW 8.1 mph - 0.00 in Snow Light Snow
3:53 AM 26.1 °F 16.8 °F 16.0 °F 66% 30.18 in 10.0 mi NW 9.2 mph - 0.00 in   Overcast
4:09 AM 26.6 °F 18.2 °F 15.8 °F 64% 30.15 in 10.0 mi NW 8.1 mph 16.1 mph N/A   Overcast
4:19 AM 24.8 °F 15.3 °F 15.8 °F 69% 30.16 in 9.0 mi NW 9.2 mph 19.6 mph N/A   Overcast
4:29 AM 24.8 °F 17.9 °F 15.8 °F 69% 30.16 in 10.0 mi Variable 5.8 mph - N/A   Overcast
4:53 AM 25.0 °F 16.3 °F 15.1 °F 66% 30.19 in 9.0 mi NNW 8.1 mph - N/A   Overcast
5:39 AM 24.8 °F 14.0 °F 14.0 °F 64% 30.19 in 10.0 mi WNW 11.5 mph 17.3 mph N/A   Overcast
5:53 AM 25.0 °F 14.8 °F 14.0 °F 63% 30.22 in 10.0 mi NW 10.4 mph 17.3 mph N/A   Overcast
6:53 AM 24.1 °F 18.2 °F 15.1 °F 69% 30.25 in 10.0 mi Variable 4.6 mph - N/A   Overcast
7:37 AM 24.8 °F 16.9 °F 14.0 °F 64% 30.23 in 10.0 mi Variable 6.9 mph - N/A   Overcast
7:46 AM 24.8 °F 19.1 °F 15.8 °F 69% 30.23 in 10.0 mi Variable 4.6 mph - N/A   Overcast
7:53 AM 25.0 °F 18.1 °F 15.1 °F 66% 30.27 in 10.0 mi North 5.8 mph - N/A   Overcast
8:22 AM 24.8 °F 19.1 °F 14.0 °F 64% 30.24 in 10.0 mi Variable 4.6 mph - N/A   Overcast
8:29 AM 24.8 °F 20.5 °F 14.0 °F 64% 30.25 in 10.0 mi Variable 3.5 mph - N/A   Overcast
8:53 AM 26.1 °F 20.5 °F 15.1 °F 63% 30.29 in 10.0 mi Variable 4.6 mph - N/A   Overcast
9:38 AM 26.6 °F 21.2 °F 15.8 °F 64% 30.28 in 10.0 mi Variable 4.6 mph - N/A   Overcast
9:53 AM 26.1 °F 21.9 °F 15.1 °F 63% 30.32 in 10.0 mi Variable 3.5 mph - N/A   Overcast
10:45 AM 24.8 °F 17.9 °F 17.6 °F 74% 30.32 in 4.0 mi East 5.8 mph - 0.00 in Snow Light Snow
10:53 AM 25.0 °F 19.3 °F 18.0 °F 75% 30.35 in 2.5 mi East 4.6 mph - 0.00 in Snow Light Snow
11:01 AM 24.8 °F 19.1 °F 17.6 °F 74% 30.33 in 4.0 mi East 4.6 mph - 0.00 in Snow Light Snow
11:24 AM 24.8 °F 20.5 °F 19.4 °F 80% 30.34 in 2.5 mi East 3.5 mph - 0.00 in Snow Light Snow
11:51 AM 24.8 °F - 19.4 °F 80% 30.34 in 3.0 mi Calm Calm - 0.00 in Snow Light Snow
11:53 AM 25.0 °F 20.7 °F 19.0 °F 78% 30.38 in 3.0 mi SE 3.5 mph - 0.00 in Snow Light Snow
12:06 PM 24.8 °F 20.5 °F 19.4 °F 80% 30.34 in 2.5 mi SE 3.5 mph - 0.00 in Snow Light Snow
12:16 PM 24.8 °F 20.5 °F 19.4 °F 80% 30.34 in 5.0 mi ESE 3.5 mph - 0.00 in Snow Light Snow
12:27 PM 26.6 °F - 19.4 °F 74% 30.34 in 9.0 mi Calm Calm - 0.00 in   Overcast
12:53 PM 26.1 °F - 19.0 °F 75% 30.37 in 10.0 mi Calm Calm - 0.00 in   Overcast
1:53 PM 28.0 °F - 16.0 °F 61% 30.36 in 10.0 mi Calm Calm - N/A   Overcast
2:53 PM 27.0 °F 20.5 °F 19.0 °F 72% 30.37 in 5.0 mi WNW 5.8 mph - 0.00 in Snow Light Snow
3:53 PM 27.0 °F - 17.1 °F 66% 30.38 in 10.0 mi Calm Calm - 0.00 in   Overcast
4:53 PM 27.0 °F 23.0 °F 15.1 °F 61% 30.40 in 10.0 mi Variable 3.5 mph - N/A   Overcast
5:16 PM 26.6 °F 21.2 °F 15.8 °F 64% 30.38 in 10.0 mi NW 4.6 mph - N/A   Overcast
5:53 PM 27.0 °F - 18.0 °F 69% 30.41 in 10.0 mi Calm Calm - N/A   Overcast
6:53 PM 27.0 °F - 18.0 °F 69% 30.42 in 10.0 mi Calm Calm - N/A   Overcast
7:53 PM 26.1 °F - 18.0 °F 71% 30.41 in 10.0 mi Calm Calm - N/A   Overcast
8:53 PM 26.1 °F 21.9 °F 17.1 °F 69% 30.41 in 10.0 mi SE 3.5 mph - N/A   Scattered Clouds
9:53 PM 24.1 °F 18.2 °F 16.0 °F 71% 30.42 in 10.0 mi ESE 4.6 mph - N/A   Clear
10:53 PM 24.1 °F - 15.1 °F 69% 30.45 in 10.0 mi Calm Calm - N/A   Clear
11:53 PM 21.9 °F 17.2 °F 15.1 °F 75% 30.45 in 10.0 mi East 3.5 mph - N/A   Clear